This is the latest recevied weather packets stored in our database for station/object LU1APW-13. If no packets are shown the sender has not sent any weather packets the latest 1 day(s).
| Time | Temp. | Humidity | Pressure | Rain* | Wind** | Luminosity | Snow |
|---|---|---|---|---|---|---|---|
| 1778102573 | 23.33° C | 74% | 1001.9 hPa | - | - | - | - |
| 1778100773 | 23.33° C | 75% | 1002 hPa | - | - | - | - |
| 1778097173 | 24.44° C | 73% | 1002.6 hPa | - | - | - | - |
| 1778096573 | 24.44° C | 73% | 1002.7 hPa | - | - | - | - |
| 1778095973 | 24.44° C | 73% | 1002.7 hPa | - | - | - | - |
| 1778089973 | 25° C | 73% | 1004.4 hPa | - | - | - | - |
| 1778088773 | 25° C | 75% | 1004.7 hPa | - | - | - | - |
| 1778088173 | 25.56° C | 76% | 1004.9 hPa | - | - | - | - |
| 1778086373 | 25° C | 78% | 1005.6 hPa | - | - | - | - |
| 1778085773 | 25° C | 79% | 1005.7 hPa | - | - | - | - |
| 1778084573 | 24.44° C | 80% | 1006.3 hPa | - | - | - | - |
| 1778083973 | 23.89° C | 82% | 1006.6 hPa | - | - | - | - |
| 1778074373 | 21.11° C | 84% | 1008.6 hPa | - | - | - | - |
| 1778073777 | 21.11° C | 86% | 1008.9 hPa | - | - | - | - |
| 1778068972 | 20.56° C | 89% | 1010.1 hPa | - | - | - | - |
| 1778067772 | 20.56° C | 90% | 1009.9 hPa | - | - | - | - |
| 1778066572 | 20° C | 89% | 1009.9 hPa | - | - | - | - |
| 1778065372 | 20° C | 89% | 1009.7 hPa | - | - | - | - |
| 1778064172 | 20° C | 89% | 1009.6 hPa | - | - | - | - |
| 1778063572 | 20° C | 88% | 1009.7 hPa | - | - | - | - |
| 1778062972 | 20° C | 88% | 1009.9 hPa | - | - | - | - |
| 1778062372 | 20° C | 88% | 1009.9 hPa | - | - | - | - |
| 1778061772 | 20° C | 88% | 1009.6 hPa | - | - | - | - |
| 1778060572 | 20° C | 87% | 1009.7 hPa | - | - | - | - |
| 1778059972 | 20° C | 87% | 1009.8 hPa | - | - | - | - |
* Rain since midnight (hover to see other rain measurements)
** Current wind speed in m/s (hover to see current wind gust speed)